Location: Cuzcurrita-R�o Tir�n
(42.5415°N, 2.9642°W)
Time: 01:59:31
(UTC+00:00)

Lacrosse 5 - Pass Details

Date: 17 January 2021
Orbit: 715 x 724 km, 57.0° (Epoch: 07 March)

Event Time Altitude Azimuth Distance (km) Brightness Sun altitude
Rises 18:29:48 0° 315° (NW) 3,122 5.6 -15.1°
Reaches altitude 10° 18:32:35 10° 329° (NNW) 2,200 4.6 -15.6°
Maximum altitude 18:36:45 25° 24° (NNE) 1,428 3.1 -16.4°
Enters shadow 18:37:51 23° 45° (NE) 1,495 3.0 -16.6°
